Regional Weather Roundup
Issued by NWS Burlington, VT

Home | Current Version | Previous Version | Text Only | Print | Product List | Glossary On
Versions: 1 2 3 4 5 6 7 8 9 10 11 12 13 14 15 16 17 18 19 20 21 22 23 24 25 26 27 28 29 30 31 32 33 34 35 36 37 38 39 40 41 42 43 44 45 46 47 48 49 50
000
ASUS41 KBTV 170410
RWRBTV
VERMONT REGIONAL WEATHER ROUNDUP
NATIONAL WEATHER SERVICE BURLINGTON VT
1100 PM EST MON JAN 16 2017

NOTE: "FAIR" INDICATES FEW OR NO CLOUDS BELOW 12,000 FEET WITH NO
SIGNIFICANT WEATHER AND/OR OBSTRUCTIONS TO VISIBILITY.

* THESE REPORTS ARE NOT UNDER NWS QUALITY CONTROL AND/OR DO NOT
  REPORT WEATHER SUCH AS PRECIPITATION AND FOG.

VTZ001>019-170500-
_____VERMONT_____


CITY           SKY/WX    TMP DP  RH WIND       PRES   REMARKS
BURLINGTON     CLEAR     24  17  74 VRB3      30.22S
MONTPELIER     CLEAR     21  14  74 S3        30.20S
MORRISVILLE    CLEAR     24  15  68 S3        30.18F
ST. JOHNSBURY*   N/A     18  13  80 MISG      30.18S
LYNDONVILLE*   FAIR      18  14  84 CALM      30.18S
MIDDLEBURY*    FAIR      26  11  52 SE3       30.21F
RUTLAND*       CLOUDY    30  18  60 CALM      30.21F
SPRINGFIELD    CLEAR     21  16  81 CALM      30.21F
HIGHGATE*      FAIR      29  19  64 S3        30.20F
NEWPORT*       FAIR      27  13  56 CALM      30.17S
BENNINGTON     PTCLDY    23  18  81 CALM      30.23F
SUTTON*          N/A     21 N/A N/A MISG        N/A

_____LAKE CHAMPLAIN_____


CITY           SKY/WX    TMP DP  RH WIND       PRES   REMARKS
BURTON ISLAND*   N/A     32  23  69 SW9         N/A  WCI  24
COLCHESTER RF*   N/A     36  27  69 S12         N/A  WCI  27
DIAMOND ISL*     N/A     32  28  86 NE2         N/A

$$

NYZ007-026>031-035-052-083-087-170500-
_____NORTHERN NEW YORK_____


CITY           SKY/WX    TMP DP  RH WIND       PRES   REMARKS
PLATTSBURGH    CLOUDY    29  16  58 VRB5      30.20F WCI  24
SARANAC LAKE   CLOUDY    17  11  77 CALM      30.16F
MASSENA        PTCLDY    29  24  82 SW9       30.23F WCI  20
OGDENSBURG*    CLEAR     28  27  93 CALM      30.22F
POTSDAM*       CLEAR     30  25  80 SW7       30.22F WCI  23
WATERTOWN      CLEAR     25  20  81 CALM      30.24S
FT DRUM        CLEAR     28  19  69 S6        30.22S WCI  22
ALBANY         MOCLDY    26  19  74 CALM      30.26F
GLENS FALLS    CLOUDY    24  17  74 CALM      30.23F

$$
NHZ002-005-011-170500-
_____NEW HAMPSHIRE_____


CITY           SKY/WX    TMP DP  RH WIND       PRES   REMARKS
LEBANON        PTCLDY    19  16  88 CALM      30.20S
KEENE          CLOUDY    22  19  89 CALM      30.23F
MT WASHINGTON  PTCLDY    10   7  85 W58         N/A  WCI -18
PLYMOUTH       FAIR      29  16  58 W7        30.18S WCI  22
WHITEFIELD     CLEAR     15  10  80 CALM      30.16S

$$

_____REGIONAL QUEBEC LOCATIONS_____


CITY           SKY/WX    TMP DP  RH WIND       PRES   REMARKS
MONTREAL       MOCLDY    32  25  74 W12G20    30.21R WCI  23
QUEBEC CITY    MOCLDY    27  21  80 W14       30.12S WCI  15
SHERBROOKE     CLOUDY    30  21  69 W7        30.14S WCI  23

_____REGIONAL ONTARIO LOCATIONS_____


CITY           SKY/WX    TMP DP  RH WIND       PRES   REMARKS
OTTAWA         PTCLDY    25  18  74 SW6       30.20F WCI  18

______KEY______
VSB  - VISIBILITY IN MILES
WCI  - WIND CHILL INDEX
HX   - HEAT INDEX
$$
NNNN



USA.gov is the U.S. government's official web portal to all federal, state and local government web resources and services.